sat.trackr.live / text

‹ back to catalog

STARLINK-5620

NORAD 55414 · 2023-014Z

PAYLOAD ACTIVE UNKNOWN

§ Identity

Operator
Country
US
Launch date
2023-01-31
Launch site
AFWTR
Launch vehicle
Mass (kg)
RCS (m²)

Purposes: comms

External: N2YO · Heavens-Above · Gunter

§ Orbital elements

Epoch: 2026-09-20T22:00:03.000096Z

Period
95.72 min
Inclination
70.0009°
Eccentricity
0.0004427
Mean motion
15.04325108 rev/d
Perigee alt
550.5 km
Apogee alt
556.6 km
Semi-major
6,931.7 km
B*
5.8868e-3
RAAN
312.0873°
Arg perigee
234.6421°
Mean anomaly
306.8506°
Rev number
571

§ Raw data

STARLINK-56201 55414U 23014Z   26263.91670139  .00083094  00000+0  58868-2 0  99942 55414  70.0009 312.0873 0004427 234.6421 306.8506 15.04325108  5710

JSON: /api/v1/satellites/55414 · /tle

For live sub-satellite position, see the globe view (requires WebGL).

§ Visibility from observer

Set your observer location to see the next 7 days of passes ≥ 10°. The values pass through the URL so the page stays shareable.

No JS? Fill the form by hand. The geolocation button needs JavaScript.